Orbital Elements at Epoch 2459000.5 (2020-May-31.0) TDB
Reference: JPL 21 (heliocentric ecliptic J2000)
Element | Value | Uncertainty (1-sigma) | Units |
e | .1246736308986554 | 3.4037e-08 | |
a | 2.174496801734507 | 7.0421e-09 | au |
q | 1.903394390084753 | 7.3943e-08 | au |
i | 2.665323386363968 | 3.7949e-06 | deg |
node | 190.8730501950426 | 7.5899e-05 | deg |
peri | 183.6894733255129 | 7.7771e-05 | deg |
M | 216.9458122460621 | 1.9934e-05 | deg |
tp | 2459465.908876156556 (2021-Sep-08.40887616) | 6.6252e-05 | TDB |
period | 1171.214894488457 3.21 | 5.6895e-06 1.558e-08 | d yr |
n | .307373140227383 | 1.4931e-09 | deg/d |
Q | 2.445599213384262 | 7.9201e-09 | au |
|
| | Orbit Determination Parameters
Additional Information
|